Location: Ripley
(48.3812°N, 115.4473°W)
Time: 22:15:39
(UTC+00:00)

CAS-6 - Pass Details

Date: 29 June 2022
Orbit: 613 x 634 km, 97.9° (Epoch: 16 August)

Event Time Altitude Azimuth Distance (km) Brightness Sun altitude
Exits shadow 04:49:11 - 120° (ESE) 2,085 ? -8.3°
Reaches altitude 10° 04:49:25 10° 118° (ESE) 2,006 ? -8.3°
Maximum altitude 04:52:56 24° 64° (ENE) 1,294 ? -8.7°
Drops below altitude 10° 04:56:27 10° 10° (N) 2,007 ? -9.0°
Sets 04:58:57 0° 357° (N) 2,915 ? -9.3°
